EW5291 Weather Reports


Display with metric or nautical units.
time (UTC)temp
F
wind
direction
speed
MPH
gust
MPH
rain 1hr
in
rain 24hr
in
rain mn
in
humidity
%
barometer
mb
20260510081538 51 190 0.0 0.0 0.00 0.54 0.00 82 1011.6
20260510080040 51 190 0.0 0.0 0.00 0.54 0.00 82 1011.5
20260510074538 51 190 0.0 0.0 0.00 0.54 0.00 82 1011.3
20260510073044 51 190 0.0 0.0 0.00 0.54 0.00 82 1011.3
20260510071544 50 190 0.0 0.0 0.00 0.54 0.00 82 1011.1
20260510070040 50 190 0.0 0.0 0.00 0.54 0.00 82 1011.3
20260510064542 50 190 0.0 0.0 0.00 0.54 0.00 82 1011.4
20260510063037 50 190 0.0 0.0 0.00 0.54 0.00 82 1011.2
20260510061537 50 190 0.0 0.0 0.00 0.54 0.00 82 1011.0
20260510060037 50 190 0.0 0.0 0.00 0.54 0.00 82 1010.8
20260510054531 51 190 0.0 0.0 0.00 0.54 0.00 82 1011.0
20260510053027 51 190 0.0 0.0 0.00 0.54 0.00 82 1011.4
20260510051537 51 190 0.0 0.0 0.00 0.54 0.00 82 1011.2
20260510050026 51 190 0.0 0.0 0.00 0.54 0.00 82 1011.2
20260510044529 52 190 0.0 0.0 0.00 0.54 0.00 82 1011.2
20260510043025 52 190 0.0 0.0 0.00 0.54 0.00 82 1011.5
20260510041521 52 190 0.0 0.0 0.00 0.54 0.00 82 1011.5
20260510040020 52 190 0.0 0.0 0.00 0.54 0.54 82 1011.5
20260510034520 52 190 0.0 0.0 0.00 0.54 0.54 82 1011.3
20260510033021 52 190 0.0 0.0 0.00 0.54 0.54 82 1011.5
20260510031504 52 0 0.0 0.0 0.00 0.54 0.54 82 1010.4
20260510031004 52 0 0.0 0.0 0.00 0.54 0.54 82 1010.4
20260510030503 52 0 0.0 0.0 0.00 0.54 0.54 82 1010.3
20260510030004 52 0 0.0 0.0 0.00 0.54 0.54 82 1010.4
20260510025503 52 0 0.0 0.0 0.00 0.54 0.54 82 1010.4
20260510024506 51 190 0.0 0.0 0.00 0.54 0.54 82 1011.1
20260510024504 52 0 0.0 0.0 0.00 0.54 0.54 82 1010.3
20260510024004 52 0 0.0 0.0 0.00 0.54 0.54 82 1010.3
20260510023503 52 0 0.0 0.0 0.00 0.54 0.54 82 1010.3
20260510023004 51 190 0.0 0.0 0.00 0.54 0.54 82 1011.3
20260510022503 52 0 0.0 0.0 0.00 0.54 0.54 82 1010.8
20260510022003 52 0 0.0 0.0 0.00 0.54 0.54 82 1010.9
20260510021504 52 0 0.0 0.0 0.00 0.54 0.54 82 1010.9
20260510021004 52 0 0.0 0.0 0.00 0.54 0.54 82 1010.9
20260510020504 52 0 0.0 0.0 0.00 0.54 0.54 82 1010.9
20260510020004 52 0 0.0 0.0 0.00 0.54 0.54 82 1011.0
20260510015504 52 0 0.0 0.0 0.00 0.54 0.54 82 1010.9
20260510015003 52 0 0.0 0.0 0.00 0.54 0.54 82 1011.0
20260510014504 52 0 0.0 0.0 0.00 0.54 0.54 82 1010.9
20260510014502 52 190 0.0 0.0 0.00 0.54 0.54 82 1011.8
20260510014003 52 0 0.0 0.0 0.00 0.54 0.54 82 1010.9
20260510013505 52 0 0.0 0.0 0.00 0.54 0.54 82 1010.8
20260510013004 52 190 0.0 0.0 0.00 0.54 0.54 82 1011.5
20260510012504 52 0 0.0 0.0 0.00 0.54 0.54 82 1010.6
20260510012004 52 0 0.0 0.0 0.00 0.54 0.54 82 1010.5
20260510011502 52 190 0.0 0.0 0.00 0.54 0.54 82 1011.3
20260510011003 52 0 0.0 0.0 0.00 0.54 0.54 82 1010.5
20260510010504 52 0 0.0 0.0 0.00 0.54 0.54 82 1010.5
20260510010004 52 190 0.0 0.0 0.00 0.54 0.54 82 1011.2
20260510005503 52 0 0.0 0.0 0.00 0.54 0.54 82 1010.3
20260510005003 52 0 0.0 0.0 0.00 0.54 0.54 82 1010.3
20260510004504 52 0 0.0 0.0 0.00 0.54 0.54 82 1010.3
20260510003503 52 0 0.0 0.0 0.00 0.54 0.54 82 1010.2
20260510003004 53 0 0.0 0.0 0.00 0.54 0.54 82 1010.2
20260510003002 52 190 0.0 0.0 0.00 0.54 0.54 82 1011.0
20260510002503 53 0 0.0 0.0 0.00 0.54 0.54 82 1010.2
20260510002004 53 0 0.0 0.0 0.00 0.54 0.54 82 1010.2
20260510001504 53 0 0.0 0.0 0.00 0.54 0.54 82 1010.2
20260510001502 52 190 0.0 0.0 0.00 0.54 0.54 82 1011.0
20260510001004 53 0 0.0 0.0 0.00 0.54 0.54 82 1010.2
20260510000504 53 0 0.0 0.0 0.00 0.54 0.54 82 1010.2
20260510000004 53 0 0.0 0.0 0.00 0.54 0.54 82 1010.3
20260509235503 53 0 0.0 0.0 0.01 0.54 0.54 82 1010.4
20260509235004 53 0 0.0 0.0 0.01 0.54 0.54 82 1010.3
20260509234503 53 190 0.0 0.0 0.01 0.54 0.54 82 1011.1
20260509234003 53 0 0.0 0.0 0.02 0.54 0.54 82 1010.3
20260509233503 53 0 0.0 0.0 0.03 0.54 0.54 82 1010.2
20260509233003 53 0 0.0 0.0 0.04 0.54 0.54 82 1010.3
20260509232504 53 0 0.0 0.0 0.06 0.54 0.54 82 1010.2
20260509232003 53 0 0.0 0.0 0.07 0.54 0.54 82 1010.1
20260509231504 53 190 0.0 0.0 0.08 0.54 0.54 82 1010.8
20260509231003 53 0 0.0 0.0 0.09 0.54 0.54 82 1009.9
20260509230503 53 0 0.0 0.0 0.09 0.54 0.54 82 1009.9
20260509230003 53 0 0.0 0.0 0.09 0.53 0.53 82 1009.9
20260509225503 53 0 0.0 0.0 0.09 0.53 0.53 82 1010.0
20260509225004 53 191 0.0 4.0 0.09 0.53 0.53 82 1010.2
20260509224503 53 191 0.0 4.0 0.10 0.53 0.53 82 1010.2
20260509224004 53 191 0.0 4.0 0.09 0.52 0.52 82 1010.0
20260509223503 53 191 0.0 1.0 0.09 0.51 0.51 82 1009.8
20260509223003 52 190 0.0 1.0 0.07 0.49 0.49 82 1010.7
20260509222003 53 0 0.0 0.0 0.06 0.47 0.47 82 1010.0
20260509221508 52 190 0.0 0.0 0.06 0.46 0.46 82 1010.8
20260509221503 53 0 0.0 0.0 0.06 0.46 0.46 82 1010.0
20260509221003 53 0 0.0 0.0 0.05 0.45 0.45 82 1010.1
20260509220004 53 0 0.0 0.0 0.05 0.44 0.44 82 1010.2
20260509220002 52 190 0.0 0.0 0.05 0.44 0.44 82 1011.0
20260509215503 53 0 0.0 0.0 0.06 0.44 0.44 82 1010.3
20260509215004 53 0 0.0 0.0 0.07 0.44 0.44 82 1010.4
20260509214504 53 0 0.0 0.0 0.06 0.43 0.43 82 1010.4
20260509214502 52 190 0.0 0.0 0.06 0.43 0.43 82 1011.2
20260509214004 53 0 0.0 0.0 0.07 0.43 0.43 82 1010.4
20260509213504 53 0 0.0 0.0 0.06 0.42 0.42 82 1010.5
20260509213004 53 0 0.0 0.0 0.07 0.42 0.42 82 1010.5
20260509212503 53 0 0.0 0.0 0.07 0.41 0.41 82 1010.5
20260509212003 52 0 0.0 0.0 0.08 0.41 0.41 82 1010.5
20260509211503 52 0 0.0 0.0 0.09 0.40 0.40 82 1010.5
20260509211003 52 0 0.0 0.0 0.10 0.40 0.40 82 1010.5
20260509210503 52 0 0.0 0.0 0.11 0.39 0.39 82 1010.6
20260509210003 52 190 0.0 0.0 0.11 0.38 0.38 82 1011.5
20260509204504 51 190 0.0 0.0 0.13 0.37 0.37 82 1011.7
20260509204004 52 0 0.0 0.0 0.12 0.36 0.36 82 1011.0
20260509203503 52 0 0.0 0.0 0.13 0.36 0.36 82 1010.9
20260509203002 51 190 0.0 0.0 0.13 0.35 0.35 82 1011.8
20260509202504 52 0 0.0 0.0 0.12 0.34 0.34 82 1011.1
20260509201503 51 190 0.0 0.0 0.10 0.31 0.31 82 1012.2
20260509201004 52 0 0.0 0.0 0.10 0.30 0.30 82 1011.2
20260509200504 52 0 0.0 0.0 0.08 0.28 0.28 82 1011.2
20260509200004 52 0 0.0 0.0 0.07 0.27 0.27 81 1011.4
20260509200002 51 190 0.0 0.0 0.07 0.27 0.27 81 1012.2
20260509195504 52 0 0.0 0.0 0.06 0.26 0.26 81 1011.3
20260509195004 52 0 0.0 0.0 0.05 0.25 0.25 81 1011.2
20260509194504 53 0 0.0 0.0 0.04 0.24 0.24 81 1011.1
20260509194502 52 190 0.0 0.0 0.04 0.24 0.24 81 1012.0
20260509194004 53 0 0.0 0.0 0.04 0.24 0.24 81 1011.1
20260509193004 53 0 0.0 0.0 0.02 0.22 0.22 82 1011.0
20260509193002 53 190 0.0 0.0 0.02 0.22 0.22 82 1011.9
20260509192003 53 0 0.0 0.0 0.01 0.21 0.21 81 1011.0
20260509191504 52 190 0.0 0.0 0.01 0.21 0.21 81 1011.7
20260509190503 53 0 0.0 0.0 0.00 0.20 0.20 81 1010.9
20260509190003 53 190 0.0 0.0 0.01 0.20 0.20 81 1011.6
20260509185503 53 0 0.0 0.0 0.01 0.20 0.20 81 1010.8
20260509185004 53 0 0.0 0.0 0.01 0.20 0.20 82 1010.9
20260509184507 52 190 0.0 0.0 0.01 0.20 0.20 81 1011.6
20260509184504 53 0 0.0 0.0 0.01 0.20 0.20 81 1010.8
20260509184003 53 0 0.0 0.0 0.01 0.20 0.20 81 1011.0
20260509183503 53 0 0.0 0.0 0.01 0.20 0.20 81 1011.0
20260509183003 52 190 0.0 0.0 0.01 0.20 0.20 81 1011.7
20260509182503 53 0 0.0 0.0 0.01 0.20 0.20 81 1010.9
20260509182003 53 0 0.0 0.0 0.02 0.20 0.20 81 1011.1
20260509181503 53 0 0.0 0.0 0.02 0.20 0.20 81 1011.3
20260509181003 53 0 0.0 0.0 0.03 0.20 0.20 81 1011.2
20260509180503 53 0 0.0 0.0 0.03 0.20 0.20 81 1011.4
20260509180003 52 0 0.0 0.0 0.02 0.19 0.19 81 1011.4
20260509175503 52 0 0.0 0.0 0.03 0.19 0.19 81 1011.3
20260509174504 52 0 0.0 0.0 0.03 0.19 0.19 81 1011.5
20260509174502 52 190 0.0 0.0 0.03 0.19 0.19 81 1012.3
20260509174004 52 0 0.0 0.0 0.03 0.19 0.19 81 1011.4
20260509173503 52 0 0.0 0.0 0.04 0.19 0.19 81 1011.3
20260509173004 52 0 0.0 0.0 0.04 0.19 0.19 81 1011.5
20260509172504 52 0 0.0 0.0 0.04 0.19 0.19 81 1011.6
20260509171503 52 0 0.0 0.0 0.03 0.18 0.18 81 1011.8
20260509171003 52 0 0.0 0.0 0.03 0.17 0.17 81 1012.0
20260509170011 51 190 0.0 0.0 0.02 0.16 0.16 81 1012.9
20260509170003 52 0 0.0 0.0 0.02 0.16 0.16 81 1012.0
20260509165003 52 0 0.0 0.0 0.02 0.16 0.16 81 1012.0
20260509164503 51 190 0.0 0.0 0.02 0.16 0.16 81 1013.1
20260509164004 51 0 0.0 0.0 0.02 0.16 0.16 81 1012.1
20260509163503 51 0 0.0 0.0 0.01 0.15 0.15 81 1012.1
20260509163003 51 0 0.0 0.0 0.01 0.15 0.15 81 1012.2
20260509162503 51 0 0.0 0.0 0.01 0.15 0.15 81 1012.2
20260509162003 50 0 0.0 0.0 0.02 0.15 0.15 80 1012.4
20260509161503 50 0 0.0 0.0 0.02 0.15 0.15 80 1012.5
20260509161003 50 0 0.0 0.0 0.01 0.14 0.14 81 1012.4
20260509160504 50 0 0.0 0.0 0.01 0.14 0.14 81 1012.4
20260509160003 50 0 0.0 0.0 0.01 0.14 0.14 80 1012.5
20260509155503 50 0 0.0 0.0 0.01 0.14 0.14 81 1012.4
20260509155003 50 0 0.0 0.0 0.01 0.14 0.14 81 1012.4
20260509154503 50 0 0.0 0.0 0.01 0.14 0.14 81 1012.5
20260509154003 50 0 0.0 0.0 0.02 0.14 0.14 81 1012.7
20260509153504 49 0 0.0 0.0 0.02 0.14 0.14 81 1012.6
20260509153005 49 190 0.0 0.0 0.02 0.14 0.14 81 1013.0
20260509152504 49 0 0.0 0.0 0.02 0.14 0.14 81 1012.2
20260509152004 49 0 0.0 0.0 0.01 0.13 0.13 82 1012.2
20260509151504 49 0 0.0 0.0 0.01 0.13 0.13 82 1012.1
20260509151004 49 0 0.0 0.0 0.01 0.13 0.13 81 1012.1
20260509150004 48 0 0.0 0.0 0.02 0.13 0.13 81 1012.2
20260509150002 48 190 0.0 0.0 0.02 0.13 0.13 81 1013.0
20260509145504 48 0 0.0 0.0 0.02 0.13 0.13 81 1012.2
20260509145004 48 0 0.0 0.0 0.02 0.13 0.13 81 1012.5
20260509144504 47 190 0.0 0.0 0.02 0.13 0.13 81 1013.4
20260509144004 47 0 0.0 0.0 0.01 0.12 0.12 81 1012.7
20260509143504 47 0 0.0 0.0 0.01 0.12 0.12 82 1012.7
20260509143003 47 0 0.0 0.0 0.02 0.12 0.12 82 1012.6
20260509142503 47 0 0.0 0.0 0.02 0.12 0.12 82 1012.5
20260509142003 47 0 0.0 0.0 0.02 0.12 0.12 82 1012.5
20260509141506 46 190 0.0 0.0 0.02 0.12 0.12 82 1013.4
20260509141503 47 0 0.0 0.0 0.02 0.12 0.12 82 1012.6
20260509141003 46 0 0.0 0.0 0.01 0.11 0.11 82 1012.7
20260509140503 46 0 0.0 0.0 0.01 0.11 0.11 82 1012.9
20260509140005 46 0 0.0 0.0 0.01 0.11 0.11 82 1013.0
20260509140003 46 190 0.0 0.0 0.01 0.11 0.11 82 1013.8
20260509135504 46 0 0.0 0.0 0.01 0.11 0.11 82 1013.1
20260509134504 46 0 0.0 0.0 0.01 0.11 0.11 82 1013.1
20260509134004 45 0 0.0 0.0 0.01 0.11 0.11 82 1013.1
20260509133504 45 0 0.0 0.0 0.01 0.11 0.11 82 1013.1
20260509133005 45 0 0.0 0.0 0.00 0.10 0.10 82 1013.1
20260509133003 45 190 0.0 0.0 0.01 0.10 0.10 82 1014.0
20260509132503 45 0 0.0 0.0 0.00 0.10 0.10 82 1013.2
20260509132003 45 0 0.0 0.0 0.00 0.10 0.10 82 1013.3
20260509131508 44 190 0.0 0.0 0.01 0.10 0.10 82 1014.0
20260509131004 44 0 0.0 0.0 0.00 0.10 0.10 82 1013.2
20260509130503 44 0 0.0 0.0 0.00 0.10 0.10 82 1013.4
20260509130004 44 0 0.0 0.0 0.00 0.10 0.10 82 1013.3
20260509125504 44 0 0.0 0.0 0.02 0.10 0.10 82 1013.3
20260509125004 44 0 0.0 0.0 0.02 0.10 0.10 82 1013.2
20260509124507 44 190 0.0 0.0 0.01 0.09 0.09 82 1014.0
20260509123012 43 190 0.0 0.0 0.01 0.09 0.09 82 1014.1
20260509121505 43 190 0.0 0.0 0.01 0.09 0.09 82 1014.2
20260509120003 42 190 0.0 0.0 0.00 0.08 0.08 82 1014.4
20260509114501 42 190 0.0 0.0 0.01 0.08 0.08 82 1014.5
20260509113106 41 190 0.0 0.0 0.02 0.08 0.08 82 1014.5
20260509111605 41 190 0.0 0.0 0.03 0.08 0.08 82 1014.8
20260509110106 41 190 0.0 0.0 0.00 0.00 0.08 82 1014.9
20260509104603 41 190 0.0 0.0 0.04 0.07 0.07 82 1014.9
20260509103052 40 190 0.0 0.0 0.05 0.06 0.06 82 1014.8
20260509101552 40 190 0.0 0.0 0.05 0.05 0.05 82 1014.5
20260509100050 39 190 0.0 0.0 0.04 0.04 0.04 82 1014.5
20260509094548 39 190 0.0 0.0 0.03 0.03 0.03 82 1014.4
20260509093048 39 190 0.0 0.0 0.01 0.01 0.01 81 1014.1
20260509091545 38 190 0.0 0.0 0.00 0.00 0.00 82 1014.4
20260509090048 38 190 0.0 0.0 0.00 0.00 0.00 82 1014.1
20260509084541 37 190 0.0 0.0 0.00 0.00 0.00 82 1013.7
20260509083046 36 190 0.0 0.0 0.00 0.00 0.00 82 1013.7